User: anonymous   Login
Location: Unspecified
(0.0000°N, 0.0000°E)
Time: 06:14:05
(UTC+02:00)
Language:

Cosmos 1437 - Orbit

View from above orbital plane
View from above orbital plane
View from above satellite
View from above satellite

Ground track
Ground track

The orbit data is extracted from the following two-line orbital elements,

1 13770U 83003A   14297.45342398  .00012192  00000-0  37995-3 0  6878
2 13770 081.1661 241.9967 0011767 044.2399 095.1832 15.33067280737363
Epoch (UTC): 24 October 2014 10:52:55
Eccentricity: 0.0011767
inclination: 81.1661°
perigee height: 458 km
apogee height: 475 km
right ascension of ascending node: 241.9967°
argument of perigee: 44.2399°
revolutions per day: 15.33067280
mean anomaly at epoch: 95.1832°
orbit number at epoch: 73736

The dashed part of the orbit path shows where the satellite is in the earth's shadow,  

DLR